Tillbaka till svenska Fidonet
English   Information   Debug  
FILM   0/18
FNEWS_PUBLISH   4881
FN_SYSOP   42085
FN_SYSOP_OLD1   71952
FTP_FIDO   0/2
FTSC_PUBLIC   0/13948
FUNNY   0/4886
GENEALOGY.EUR   0/71
GET_INFO   105
GOLDED   0/408
HAM   11621/16617
HOLYSMOKE   0/6791
HOT_SITES   0/1
HTMLEDIT   0/71
HUB203   466
HUB_100   264
HUB_400   39
HUMOR   0/29
IC   0/2851
INTERNET   0/424
INTERUSER   0/3
IP_CONNECT   719
JAMNNTPD   0/233
JAMTLAND   0/47
KATTY_KORNER   0/41
LAN   0/16
LINUX-USER   0/19
LINUXHELP   0/1155
LINUX   0/22287
LINUX_BBS   0/957
mail   18.68
mail_fore_ok   249
MENSA   0/341
MODERATOR   0/102
MONTE   0/992
MOSCOW_OKLAHOMA   0/1245
MUFFIN   0/783
MUSIC   0/321
N203_STAT   938
N203_SYSCHAT   313
NET203   321
NET204   69
NET_DEV   0/10
NORD.ADMIN   0/101
NORD.CHAT   0/2572
NORD.FIDONET   189
NORD.HARDWARE   0/28
NORD.KULTUR   0/114
NORD.PROG   0/32
NORD.SOFTWARE   0/88
NORD.TEKNIK   0/58
NORD   0/453
OCCULT_CHAT   0/93
OS2BBS   0/787
OS2DOSBBS   0/580
OS2HW   0/42
OS2INET   0/37
OS2LAN   0/134
OS2PROG   0/36
OS2REXX   0/113
OS2USER-L   207
OS2   0/4829
OSDEBATE   0/18996
PASCAL   0/490
PERL   0/457
PHP   0/45
POINTS   0/405
POLITICS   0/29554
POL_INC   0/14731
PSION   103
R20_ADMIN   1133
R20_AMATORRADIO   0/2
R20_BEST_OF_FIDONET   16
R20_CHAT   0/896
R20_DEPP   0/3
R20_DEV   400
R20_ECHO2   1788
R20_ECHOPRES   0/35
R20_ESTAT   0/719
R20_FIDONETPROG...
...RAM.MYPOINT
  0/2
R20_FIDONETPROGRAM   0/22
R20_FIDONET   0/248
R20_FILEFIND   0/24
R20_FILEFOUND   0/22
R20_HIFI   0/3
R20_INFO2   3681
R20_INTERNET   0/12940
R20_INTRESSE   0/60
R20_INTR_KOM   0/99
R20_KANDIDAT.CHAT   42
R20_KANDIDAT   28
R20_KOM_DEV   112
R20_KONTROLL   0/13360
R20_KORSET   0/18
R20_LOKALTRAFIK   0/24
R20_MODERATOR   0/1852
R20_NC   76
R20_NET200   245
R20_NETWORK.OTH...
...ERNETS
  0/13
R20_OPERATIVSYS...
...TEM.LINUX
  0/44
R20_PROGRAMVAROR   0/1
R20_REC2NEC   534
R20_SFOSM   0/341
R20_SF   0/108
R20_SPRAK.ENGLISH   0/1
R20_SQUISH   107
R20_TEST   2
R20_WORST_OF_FIDONET   20
RAR   0/9
RA_MULTI   106
RA_UTIL   0/162
REGCON.EUR   0/2067
REGCON   0/13
SCIENCE   0/1206
SF   0/239
SHAREWARE_SUPPORT   0/5146
SHAREWRE   0/14
SIMPSONS   0/169
STATS_OLD1   0/2539.065
STATS_OLD2   0/2530
STATS_OLD3   0/2395.095
STATS_OLD4   0/1692.25
SURVIVOR   0/495
SYSOPS_CORNER   0/3
SYSOP   0/84
TAGLINES   0/112
TEAMOS2   0/4530
TECH   0/2617
TEST.444   0/105
TRAPDOOR   0/19
TREK   0/755
TUB   0/290
UFO   0/40
UNIX   0/1316
USA_EURLINK   0/102
USR_MODEMS   0/1
VATICAN   0/2740
VIETNAM_VETS   0/14
VIRUS   0/378
VIRUS_INFO   0/201
VISUAL_BASIC   0/473
WHITEHOUSE   0/5187
WIN2000   0/101
WIN32   0/30
WIN95   0/4291
WIN95_OLD1   0/70272
WINDOWS   0/1517
WWB_SYSOP   0/419
WWB_TECH   0/810
ZCC-PUBLIC   0/1
ZEC   4

 
4DOS   0/134
ABORTION   0/7
ALASKA_CHAT   0/506
ALLFIX_FILE   0/1313
ALLFIX_FILE_OLD1   0/7997
ALT_DOS   0/152
AMATEUR_RADIO   0/1039
AMIGASALE   0/14
AMIGA   0/331
AMIGA_INT   0/1
AMIGA_PROG   0/20
AMIGA_SYSOP   0/26
ANIME   0/15
ARGUS   0/924
ASCII_ART   0/340
ASIAN_LINK   0/651
ASTRONOMY   0/417
AUDIO   0/92
AUTOMOBILE_RACING   0/105
BABYLON5   0/17862
BAG   135
BATPOWER   0/361
BBBS.ENGLISH   0/382
BBSLAW   0/109
BBS_ADS   0/5290
BBS_INTERNET   0/507
BIBLE   0/3563
BINKD   0/1119
BINKLEY   0/215
BLUEWAVE   0/2173
CABLE_MODEMS   0/25
CBM   0/46
CDRECORD   0/66
CDROM   0/20
CLASSIC_COMPUTER   0/378
COMICS   0/15
CONSPRCY   0/899
COOKING   41016
COOKING_OLD1   0/24719
COOKING_OLD2   0/40862
COOKING_OLD3   0/37489
COOKING_OLD4   0/35496
COOKING_OLD5   9370
C_ECHO   0/189
C_PLUSPLUS   0/31
DIRTY_DOZEN   0/201
DOORGAMES   0/2253
DOS_INTERNET   0/196
duplikat   6102
ECHOLIST   0/18295
EC_SUPPORT   0/318
ELECTRONICS   0/359
ELEKTRONIK.GER   1534
ENET.LINGUISTIC   0/13
ENET.POLITICS   0/4
ENET.SOFT   0/11701
ENET.SYSOP   34252
ENET.TALKS   0/32
ENGLISH_TUTOR   0/2000
EVOLUTION   0/1335
FDECHO   0/217
FDN_ANNOUNCE   0/7068
FIDONEWS   24977
FIDONEWS_OLD1   0/49742
FIDONEWS_OLD2   0/35949
FIDONEWS_OLD3   0/30874
FIDONEWS_OLD4   0/37224
FIDO_SYSOP   12920
FIDO_UTIL   0/180
FILEFIND   0/209
FILEGATE   0/212
Möte HAM, 16617 texter
 lista första sista föregående nästa
Text 3596, 880 rader
Skriven 2010-04-08 22:00:24 av Amsat List (1:323/120.0)
Ärende: [keps]  orb10098.amsa
=============================
[keps]  orb10098.amsa

Return-Path: <keps-bounces@amsat.org>
X-Rcpt: craig.healy@chowda.com
X-UIDL: 1270775650.29236

SB KEPS @ AMSAT  $ORB10098.O
Orbital Elements  10098.OSCAR

HR AMSAT ORBITAL ELEMENTS FOR OSCAR SATELLITES
FROM WA5QGD FORT WORTH,TX April 8, 2010
Send Subscribe/unsubscribe to KEPS at http://www.amsat.org/mailman/listinfo/kep
BID: ORB10098.O
TO ALL RADIO AMATEURS BT

Satellite: AO-07
Catalog number: 07530
Epoch time:      10097.57415736
Element set:    0748
Inclination:      101.4054 deg
RA of node:       116.1729 deg
Eccentricity:    0.0012186
Arg of perigee:   052.3575 deg
Mean anomaly:     307.8599 deg
Mean motion:   12.53578152 rev/day
Decay rate:       -2.7e-07 rev/day^2
Epoch rev:           61960
Checksum:              306

Satellite: FO-29
Catalog number: 24278
Epoch time:      10098.58889677
Element set:     282
Inclination:      098.5193 deg
RA of node:       297.3303 deg
Eccentricity:    0.0350239
Arg of perigee:   304.5655 deg
Mean anomaly:     052.2893 deg
Mean motion:   13.52948860 rev/day
Decay rate:      .00000000 rev/day^2
Epoch rev:           67369
Checksum:              343

Satellite: SO-33
Catalog number: 25509
Epoch time:      10098.50542532
Element set:     686
Inclination:      031.4313 deg
RA of node:       182.5558 deg
Eccentricity:    0.0353439
Arg of perigee:   040.6370 deg
Mean anomaly:     322.0078 deg
Mean motion:   14.28301141 rev/day
Decay rate:       3.35e-06 rev/day^2
Epoch rev:           59808
Checksum:              285

Satellite: RS-22
Catalog number: 27939
Epoch time:      10098.65551643
Element set:      71
Inclination:      097.9025 deg
RA of node:       327.0545 deg
Eccentricity:    0.0012528
Arg of perigee:   281.3529 deg
Mean anomaly:     078.6273 deg
Mean motion:   14.63402451 rev/day
Decay rate:       3.26e-06 rev/day^2
Epoch rev:           34878
Checksum:              315

Satellite: VO-52
Catalog number: 28650
Epoch time:      10097.76753500
Element set:     474
Inclination:      097.6990 deg
RA of node:       153.9255 deg
Eccentricity:    0.0027663
Arg of perigee:   144.6314 deg
Mean anomaly:     215.6759 deg
Mean motion:   14.81716485 rev/day
Decay rate:       2.05e-06 rev/day^2
Epoch rev:           26626
Checksum:              329

Satellite: SO-67
Catalog number: 35870
Epoch time:      10098.73290958
Element set:     613
Inclination:      097.3382 deg
RA of node:       149.6334 deg
Eccentricity:    0.0007659
Arg of perigee:   307.6503 deg
Mean anomaly:     185.8721 deg
Mean motion:   15.22448783 rev/day
Decay rate:      1.605e-05 rev/day^2
Epoch rev:            3089
Checksum:              337

Satellite: HO-68
Catalog number: 36122
Epoch time:      10098.62471179
Element set:     195
Inclination:      100.4756 deg
RA of node:       159.7407 deg
Eccentricity:    0.0007736
Arg of perigee:   132.6317 deg
Mean anomaly:     227.5449 deg
Mean motion:   13.16280285 rev/day
Decay rate:       -4.5e-07 rev/day^2
Epoch rev:            1506
Checksum:              302

/EX
SB KEPS @ AMSAT  $ORB10098.D
Orbital Elements  10098.MICROS

HR AMSAT ORBITAL ELEMENTS FOR THE MICROSATS
FROM WA5QGD FORT WORTH,TX April 8, 2010
Send Subscribe/unsubscribe to KEPS at http://www.amsat.org/mailman/listinfo/kep
BID: ORB10098.D
TO ALL RADIO AMATEURS BT

Satellite: UO-11
Catalog number: 14781
Epoch time:      10097.15895957
Element set:    0215
Inclination:      098.0617 deg
RA of node:       148.6573 deg
Eccentricity:    0.0010021
Arg of perigee:   104.9979 deg
Mean anomaly:     255.2342 deg
Mean motion:   14.79785317 rev/day
Decay rate:       -6.4e-07 rev/day^2
Epoch rev:           40130
Checksum:              310

Satellite: AO-16
Catalog number: 20439
Epoch time:      10097.75044309
Element set:     864
Inclination:      098.3251 deg
RA of node:       058.4552 deg
Eccentricity:    0.0011502
Arg of perigee:   020.3776 deg
Mean anomaly:     339.7865 deg
Mean motion:   14.31855458 rev/day
Decay rate:        4.0e-07 rev/day^2
Epoch rev:            5530
Checksum:              296

Satellite: LO-19
Catalog number: 20442
Epoch time:      10097.48002811
Element set:    0777
Inclination:      098.2861 deg
RA of node:       064.2854 deg
Eccentricity:    0.0012342
Arg of perigee:   016.3791 deg
Mean anomaly:     343.7773 deg
Mean motion:   14.32088193 rev/day
Decay rate:       1.74e-06 rev/day^2
Epoch rev:           05543
Checksum:              298

Satellite: AO-27
Catalog number: 22825
Epoch time:      10097.79859759
Element set:     498
Inclination:      098.4799 deg
RA of node:       047.5926 deg
Eccentricity:    0.0009147
Arg of perigee:   113.6939 deg
Mean anomaly:     246.5210 deg
Mean motion:   14.29292875 rev/day
Decay rate:        9.5e-07 rev/day^2
Epoch rev:           86199
Checksum:              384

Satellite: IO-26
Catalog number: 22826
Epoch time:      10098.78653602
Element set:     236
Inclination:      098.4730 deg
RA of node:       049.1817 deg
Eccentricity:    0.0009780
Arg of perigee:   106.1976 deg
Mean anomaly:     254.0286 deg
Mean motion:   14.29547999 rev/day
Decay rate:        5.6e-07 rev/day^2
Epoch rev:           86224
Checksum:              339

Satellite: GO-32
Catalog number: 25397
Epoch time:      10098.56879918
Element set:     155
Inclination:      098.3150 deg
RA of node:       109.8510 deg
Eccentricity:    0.0002212
Arg of perigee:   098.8862 deg
Mean anomaly:     261.2575 deg
Mean motion:   14.23175288 rev/day
Decay rate:        7.0e-07 rev/day^2
Epoch rev:           61014
Checksum:              310

